Terug naar catalogus

STARLINK-6075

ActiefCommunicatieVLEO
NORAD 56102·PAYLOAD·🇺🇸 United States

Gelanceerd Mar 29, 2023 vanaf Cape Canaveral Space Force Station

Loading…

Volgende Passages (komende 24 uur)

TLE

VersSource: CelesTrak SupGP

Epoch: Sep 14, 2026, 22:20 UTC

1 56102C 23046K   26257.93104167 -.00033562  00000+0 -12158-2 0  2578
2 56102  42.9988 172.7167 0001136 235.0582 162.7116 15.27590019    17

Volg STARLINK-6075 in realtime met AllMySat

Download on the App Store